Location: Cisewo
(53.3833°N, 14.9000°E)
Time: 11:39:22
(UTC+00:00)

NOSS 3-4 (C) - Pass Details

Date: 18 April 2021
Orbit: 873 x 1339 km, 63.4° (Epoch: 06 May)

Event Time Altitude Azimuth Distance (km) Brightness Sun altitude
Rises 19:49:22 0° 243° (WSW) 3,486 6.7 -13.9°
Reaches altitude 10° 19:51:49 10° 247° (WSW) 2,577 6.0 -14.2°
Maximum altitude 19:57:43 60° 327° (NNW) 1,082 4.1 -14.8°
Drops below altitude 10° 20:04:14 10° 48° (NE) 2,833 5.9 -15.5°
Sets 20:07:03 0° 52° (NE) 3,860 6.6 -15.8°
